Year,Month,Day,Hour,Count,Minimum,Average,StdDev,Maximum
2014,01,01,00, 1289, 0.00,  7.87,  1.39, 20.90
2014,01,02,00, 1364, 0.00, 19.52,  3.41, 45.10
2014,01,03,00, 1350, 0.00, 22.72,  4.89, 46.70
2014,01,04,00, 1336, 0.00, 13.55,  1.58, 22.50
2014,01,05,00, 1262,17.70, 21.37,  0.69, 25.70
2014,01,06,00, 1369, 8.00, 16.89,  1.55, 25.70
2014,01,07,00, 1341, 9.70, 18.83,  1.12, 25.70
2014,01,08,00, 1300, 0.00, 15.10,  4.64, 51.50
2014,01,09,00, 1361, 3.20, 24.68,  3.46, 48.30
2014,01,10,00, 1351, 0.00, 24.86,  3.68, 43.50
2014,01,11,00,  900, 3.20, 29.48,  5.71, 70.80
2014,01,12,00, 1363, 0.00, 30.12,  4.44, 61.20
2014,01,13,00, 1347,14.50, 33.85,  2.29, 46.70
2014,01,14,00, 1149, 6.40, 13.73,  1.56, 30.60
2014,01,15,00,  180,12.90, 12.90,  0.00, 12.90
2014,01,16,00,  737, 6.40, 17.24,  1.44, 25.70
2014,01,17,00, 1307,12.90, 20.29,  1.13, 29.00
2014,01,18,00, 1371, 0.00, 14.22,  1.98, 25.70
2014,01,19,00, 1359, 3.20, 13.64,  1.33, 22.50
2014,01,20,00, 1346, 8.00, 16.12,  1.57, 24.10
2014,01,21,00, 1333, 0.00, 12.52,  1.42, 24.10
2014,01,22,00, 1279, 0.00, 10.76,  1.62, 19.30
2014,01,23,00, 1365, 0.00, 15.27,  1.65, 29.00
2014,01,24,00, 1353, 0.00, 11.13,  1.59, 20.90
2014,01,25,00, 1336, 0.00,  6.90,  1.44, 16.10
2014,01,26,00, 1283, 3.20, 10.48,  1.19, 17.70
2014,01,27,00, 1373, 1.60, 12.27,  1.14, 19.30
2014,01,28,00, 1175,11.30, 17.36,  1.30, 29.00
2014,01,29,00,  373,16.10, 23.47,  1.80, 32.20
2014,01,30,00, 1229, 0.00, 23.44,  2.40, 37.00
2014,01,31,00, 1358, 0.00, 11.87,  2.39, 32.20
2014,02,01,00, 1341, 0.00, 15.15,  1.42, 22.50
2014,02,02,00, 1322, 9.70, 17.81,  1.24, 25.70
2014,02,03,00, 1303,11.30, 19.83,  1.61, 32.20
2014,02,04,00, 1360,20.90, 34.44,  1.69, 45.10
2014,02,05,00, 1346,16.10, 29.00,  1.96, 41.80
2014,02,06,00, 1330, 3.20, 22.09,  2.22, 40.20
2014,02,07,00, 1293, 3.20, 15.23,  1.88, 29.00
2014,02,08,00, 1363,12.90, 27.23,  2.04, 46.70
2014,02,09,00, 1350, 3.20, 18.32,  2.03, 33.80
2014,02,10,00, 1335, 9.70, 24.67,  2.88, 45.10
2014,02,11,00, 1292, 1.60, 17.30,  2.32, 40.20
2014,02,12,00, 1356, 0.00, 17.86,  4.39, 49.90
2014,02,13,00, 1341, 0.00, 25.23,  4.03, 54.70
2014,02,14,00, 1326, 1.60, 18.41,  2.61, 35.40
2014,02,15,00, 1295, 4.80, 24.17,  4.07, 51.50
2014,02,16,00, 1366, 3.20, 19.87,  3.56, 49.90
2014,02,17,00, 1345, 0.00, 14.60,  2.06, 29.00
2014,02,18,00, 1338, 3.20, 24.08,  4.83, 56.30
2014,02,19,00, 1297, 3.20, 22.76,  3.31, 49.90
2014,02,20,00, 1367, 6.40, 32.08,  2.83, 48.30
2014,02,21,00, 1309, 0.00, 12.95,  2.76, 37.00
2014,02,22,00, 1334, 0.00,  6.12,  1.57, 29.00
2014,02,23,00, 1285,17.70, 29.29,  1.63, 41.80
2014,02,24,00, 1364,20.90, 35.35,  1.32, 43.50
2014,02,25,00, 1352,16.10, 29.93,  1.67, 45.10
2014,02,26,00, 1346, 0.00, 18.98,  3.66, 40.20
2014,02,27,00, 1331, 0.00,  6.35,  1.22, 14.50
2014,02,28,00, 1292, 6.40, 15.91,  2.05, 43.50
2014,03,01,00, 1364,22.50, 35.28,  1.54, 46.70
2014,03,02,00, 1350, 0.00, 19.88,  2.48, 32.20
2014,03,03,00, 1332, 0.00, 14.52,  3.21, 37.00
2014,03,04,00, 1296, 8.00, 20.93,  1.64, 33.80
2014,03,05,00, 1364, 0.00, 14.67,  2.35, 30.60
2014,03,06,00, 1350, 0.00, 15.28,  4.07, 48.30
2014,03,07,00, 1307, 1.60, 12.13,  1.89, 29.00
2014,03,08,00, 1344, 0.00, 14.32,  2.35, 33.80
2014,03,09,00, 1205, 8.00, 17.16,  2.07, 37.00
2014,03,10,00, 1299,17.70, 28.90,  1.97, 46.70
2014,03,11,00, 1327, 0.00,  8.33,  1.99, 25.70
2014,03,12,00, 1368, 0.00,  7.67,  1.30, 14.50
2014,03,13,00, 1354, 0.00,  5.08,  1.24, 14.50
2014,03,14,00, 1343, 0.00, 21.34,  3.98, 40.20
2014,03,15,00, 1304, 0.00, 14.22,  2.43, 29.00
2014,03,16,00, 1373, 6.40, 22.85,  2.82, 46.70
2014,03,17,00, 1360,14.50, 36.01,  2.35, 53.10
2014,03,18,00, 1344, 0.00,  8.10,  1.66, 16.10
2014,03,19,00, 1339, 3.20, 27.22,  4.50, 53.10
2014,03,20,00, 1301,12.90, 26.60,  1.75, 41.80
2014,03,21,00, 1371, 0.00,  9.36,  1.22, 16.10
2014,03,22,00, 1356, 0.00,  4.57,  1.14, 17.70
2014,03,23,00, 1346, 1.60, 14.00,  1.52, 24.10
2014,03,24,00, 1333, 0.00, 15.54,  2.14, 29.00
2014,03,25,00, 1284, 3.20, 14.43,  2.18, 30.60
2014,03,26,00, 1120, 0.00, 12.55,  1.37, 19.30
2014,03,27,00,  921, 0.00,  5.25,  1.06, 11.30
2014,03,28,00, 1320, 0.00, 10.17,  1.82, 32.20
2014,03,29,00, 1285, 0.00,  4.73,  1.07, 11.30
2014,03,30,00, 1369, 0.00, 15.66,  3.46, 38.60
2014,03,31,00, 1352, 0.00, 14.01,  1.90, 30.60
2014,04,01,00, 1340, 0.00,  9.89,  2.40, 25.70
2014,04,02,00, 1293, 6.40, 14.42,  1.70, 25.70
2014,04,03,00, 1374, 0.00,  9.17,  1.46, 17.70
2014,04,04,00, 1301, 3.20, 14.84,  1.98, 33.80
2014,04,05,00,  180, 9.70,  9.70,  0.00,  9.70
2014,04,06,00,  180, 9.70,  9.70,  0.00,  9.70
2014,04,07,00,  180, 9.70,  9.70,  0.00,  9.70
2014,04,08,00,  763, 0.00, 23.55,  3.33, 38.60
2014,04,09,00, 1358, 9.70, 24.63,  2.17, 43.50
2014,04,10,00, 1322,12.90, 21.83,  1.54, 35.40
2014,04,11,00, 1256,11.30, 25.24,  1.88, 45.10
2014,04,12,00, 1182, 0.00,  8.05,  1.83, 19.30
2014,04,13,00,  463, 0.00,  4.51,  1.60, 20.90
2014,04,14,00,  210, 0.00, 18.00,  5.10, 49.90
2014,04,15,00,  745, 0.00, 14.93,  3.79, 40.20
2014,04,16,00, 1285, 0.00,  5.44,  1.20, 14.50
2014,04,17,00, 1353, 0.00, 15.40,  3.56, 40.20
2014,04,18,00, 1299, 0.00, 21.51,  3.44, 43.50
2014,04,19,00, 1263, 6.40, 18.17,  2.11, 30.60
2014,04,20,00, 1370, 0.00, 10.96,  1.50, 19.30
2014,04,21,00, 1357, 0.00, 15.11,  2.68, 33.80
2014,04,22,00, 1353, 0.00, 18.19,  3.21, 33.80
2014,04,23,00, 1342, 0.00, 11.15,  2.15, 33.80
2014,04,24,00, 1329, 0.00, 21.64,  2.78, 40.20
2014,04,25,00, 1217, 0.00, 12.54,  2.56, 30.60
2014,04,26,00, 1369, 0.00, 11.25,  1.62, 19.30
2014,04,27,00, 1352, 8.00, 21.54,  1.68, 30.60
2014,04,28,00, 1340, 0.00,  9.33,  1.44, 19.30
2014,04,29,00, 1275, 0.00, 10.06,  1.48, 19.30
2014,04,30,00, 1372, 0.00,  8.22,  1.36, 16.10
2014,05,01,00, 1357, 0.00,  8.06,  1.11, 14.50
2014,05,02,00, 1340,11.30, 26.27,  2.85, 48.30
2014,05,03,00, 1330, 0.00,  9.99,  1.67, 22.50
2014,05,04,00, 1314, 0.00,  5.35,  1.23, 14.50
2014,05,05,00, 1261, 0.00,  6.36,  2.57, 24.10
2014,05,06,00, 1364,16.10, 25.58,  1.49, 33.80
2014,05,07,00, 1262, 3.20, 17.31,  2.00, 33.80
2014,05,08,00, 1372, 0.00,  8.35,  2.12, 30.60
2014,05,09,00, 1277, 8.00, 20.44,  2.18, 38.60
2014,05,10,00, 1345,16.10, 20.67,  0.99, 32.20
2014,05,11,00,  897, 9.70, 14.98,  1.16, 24.10
2014,05,12,00, 1251, 0.00,  6.14,  1.04, 11.30
2014,05,13,00, 1298, 0.00,  5.40,  1.08, 12.90
2014,05,14,00, 1359, 0.00,  6.22,  1.37, 14.50
2014,05,15,00, 1344, 1.60,  9.94,  2.41, 49.90
2014,05,16,00, 1319, 8.00, 17.47,  1.77, 35.40
2014,05,17,00, 1269, 8.00, 15.43,  1.16, 24.10
2014,05,18,00, 1358, 3.20, 13.77,  1.51, 24.10
2014,05,19,00, 1343, 6.40, 14.79,  1.78, 29.00
2014,05,20,00, 1322,17.70, 28.64,  2.45, 45.10
2014,05,21,00, 1347,16.10, 27.03,  1.68, 40.20
2014,05,22,00, 1343, 1.60, 15.36,  1.45, 24.10
2014,05,23,00, 1315, 0.00, 19.65,  3.48, 40.20
2014,05,24,00, 1263,12.90, 18.76,  1.29, 30.60
2014,05,25,00, 1362, 0.00, 10.24,  1.45, 22.50
2014,05,26,00, 1349, 0.00, 16.77,  2.35, 33.80
2014,05,27,00, 1334, 6.40, 14.93,  1.82, 30.60
2014,05,28,00, 1296,12.90, 25.39,  2.26, 43.50
2014,05,29,00, 1314,12.90, 18.65,  1.28, 25.70
2014,05,30,00, 1261, 3.20, 13.09,  1.92, 24.10
2014,05,31,00, 1365, 6.40, 17.57,  2.74, 43.50
2014,06,01,00, 1281, 1.60, 19.35,  2.89, 35.40
2014,06,02,00, 1356, 8.00, 23.43,  2.11, 38.60
2014,06,03,00, 1283, 1.60, 13.39,  2.28, 33.80
2014,06,04,00, 1327, 8.00, 18.57,  1.81, 30.60
2014,06,05,00, 1274, 1.60, 11.56,  2.70, 30.60
2014,06,06,00,  917, 6.40, 24.61,  4.11, 53.10
2014,06,07,00, 1291,14.50, 28.50,  2.29, 46.70
2014,06,08,00, 1356,20.90, 30.30,  2.03, 45.10
2014,06,09,00, 1340,12.90, 26.64,  2.29, 51.50
2014,06,10,00, 1320,14.50, 25.54,  1.85, 35.40
2014,06,11,00, 1067, 0.00, 10.54,  1.77, 25.70
2014,06,12,00, 1061,17.70, 26.88,  1.24, 33.80
2014,06,13,00, 1151,14.50, 30.58,  2.80, 54.70
2014,06,14,00, 1230, 3.20, 18.95,  2.57, 32.20
2014,06,15,00, 1101, 6.40, 22.96,  2.76, 41.80
2014,06,16,00, 1179, 0.00, 15.24,  1.97, 29.00
2014,06,17,00, 1220, 9.70, 21.80,  3.17, 48.30
2014,06,18,00, 1143,11.30, 18.53,  1.21, 29.00
2014,06,19,00, 1363, 0.00, 12.12,  3.03, 38.60
2014,06,20,00, 1347,12.90, 23.52,  1.68, 35.40
2014,06,21,00, 1324, 6.40, 13.52,  1.22, 20.90
2014,06,22,00, 1251, 9.70, 18.24,  1.58, 30.60
2014,06,23,00, 1365, 9.70, 22.83,  1.83, 37.00
2014,06,24,00, 1349, 0.00,  8.80,  2.04, 24.10
2014,06,25,00, 1297, 6.40, 16.04,  1.63, 29.00
2014,06,26,00, 1297, 9.70, 24.64,  1.97, 40.20
2014,06,27,00, 1348, 0.00, 17.32,  2.50, 33.80
2014,06,28,00, 1296, 0.00, 11.74,  2.96, 37.00
2014,06,29,00,  635, 6.40, 12.43,  1.40, 20.90
2014,06,30,00,  635, 0.00,  6.64,  1.00,  9.70
2014,07,01,00, 1291, 0.00,  6.69,  1.49, 17.70
2014,07,02,00, 1360,25.70, 37.89,  1.83, 53.10
2014,07,03,00, 1345,11.30, 22.16,  1.82, 35.40
2014,07,04,00, 1329, 8.00, 16.10,  1.37, 29.00
2014,07,05,00, 1269, 0.00,  4.81,  1.30, 16.10
2014,07,06,00, 1365, 0.00,  5.67,  1.64, 17.70
2014,07,07,00, 1313, 1.60, 17.13,  2.78, 41.80
2014,07,08,00, 1303,11.30, 24.74,  2.84, 48.30
2014,07,09,00, 1305, 6.40, 16.74,  1.32, 25.70
2014,07,10,00, 1356, 0.00, 12.61,  2.83, 30.60
2014,07,11,00, 1343, 4.80, 14.14,  1.53, 25.70
2014,07,12,00, 1313,14.50, 28.32,  2.08, 41.80
2014,07,13,00, 1261,14.50, 27.36,  2.33, 56.30
2014,07,14,00, 1358,14.50, 29.09,  2.17, 45.10
2014,07,15,00, 1288,17.70, 26.93,  1.85, 43.50
2014,07,16,00, 1338, 9.70, 21.44,  2.12, 38.60
2014,07,17,00, 1361, 3.20, 17.07,  2.30, 32.20
2014,07,18,00, 1295, 8.00, 22.93,  3.30, 54.70
2014,07,19,00, 1311,12.90, 28.13,  2.03, 41.80
2014,07,20,00, 1360,16.10, 23.32,  1.02, 32.20
2014,07,21,00, 1355, 8.00, 16.61,  1.30, 25.70
2014,07,22,00, 1268, 1.60, 10.97,  1.57, 24.10
2014,07,23,00, 1312, 0.00,  8.29,  2.31, 30.60
2014,07,24,00, 1369, 3.20, 22.13,  3.16, 37.00
2014,07,25,00, 1360, 6.40, 14.56,  1.22, 25.70
2014,07,26,00, 1340,12.90, 20.96,  1.28, 32.20
2014,07,27,00, 1354, 3.20, 17.55,  2.17, 30.60
2014,07,28,00, 1340, 8.00, 20.86,  3.11, 43.50
2014,07,29,00, 1333,14.50, 33.38,  2.79, 53.10
2014,07,30,00, 1344,12.90, 26.68,  3.01, 46.70
2014,07,31,00, 1293, 9.70, 21.33,  2.65, 38.60
2014,08,01,00, 1265, 9.70, 16.44,  1.17, 24.10
2014,08,02,00, 1238, 9.70, 17.54,  1.53, 30.60
2014,08,03,00,  521, 8.00, 14.06,  1.36, 22.50
2014,08,04,00,  180, 8.00,  8.00,  0.00,  8.00
2014,08,05,00,  323, 8.00, 14.05,  1.93, 24.30
2014,08,06,00,  180,19.10, 19.10,  0.00, 19.10
2014,08,07,00,  420,17.40, 19.27,  0.38, 21.70
2014,08,08,00, 1331, 7.80, 12.85,  0.85, 19.10
2014,08,09,00, 1340, 6.10, 11.48,  0.88, 19.10
2014,08,10,00, 1284, 0.00,  4.24,  0.69,  9.60
2014,08,11,00, 1284, 0.00,  5.15,  0.95, 12.20
2014,08,12,00, 1294, 0.00,  9.75,  1.13, 17.40
2014,08,13,00, 1294, 0.00,  6.77,  1.64, 19.10
2014,08,14,00, 1268, 0.00,  4.41,  1.04, 11.30
2014,08,15,00, 1224, 4.30,  8.96,  0.57, 13.90
2014,08,16,00, 1252, 5.20,  9.82,  0.78, 15.70
2014,08,17,00, 1358, 5.20,  9.93,  0.56, 13.00
2014,08,18,00, 1341, 1.70,  6.73,  0.88, 13.90
2014,08,19,00, 1043, 4.30, 11.85,  1.40, 19.10
2014,08,20,00,  180,19.10, 19.10,  0.00, 19.10
2014,08,21,00,  180,19.10, 19.10,  0.00, 19.10
2014,08,22,00,  174,19.10, 19.10,  0.00, 19.10
2014,08,23,00,  180,19.10, 19.10,  0.00, 19.10
2014,08,24,00,  180,19.10, 19.10,  0.00, 19.10
2014,08,25,00,  394, 6.10,  8.28,  0.41, 11.30
2014,08,26,00, 1369, 0.90,  8.01,  1.25, 19.10
2014,08,27,00, 1371, 4.30, 13.72,  1.47, 27.00
2014,08,28,00, 1371, 7.00, 14.07,  1.02, 23.50
2014,08,29,00, 1370, 1.70,  8.14,  0.92, 19.10
2014,08,30,00, 1366, 0.00,  8.05,  1.56, 20.00
2014,08,31,00, 1371, 1.70,  8.21,  0.69, 13.90
2014,09,01,00, 1369, 0.00,  5.98,  0.92, 13.00
2014,09,02,00, 1371, 0.00, 11.29,  1.05, 20.90
2014,09,03,00, 1370, 0.00,  4.00,  0.60,  9.60
2014,09,04,00, 1371, 0.00,  2.49,  0.77,  7.80
2014,09,05,00, 1371, 0.00,  3.29,  0.79, 10.40
2014,09,06,00, 1371, 0.00,  3.90,  0.75,  9.60
2014,09,07,00, 1369, 0.00,  9.14,  1.37, 21.70
2014,09,08,00, 1371, 5.20, 12.71,  0.97, 19.10
2014,09,09,00, 1371, 3.50,  8.60,  0.70, 15.70
2014,09,10,00, 1371, 0.00,  4.59,  1.11, 15.70
2014,09,11,00, 1191, 1.70,  8.62,  0.79, 16.50
2014,09,12,00,  772, 0.00,  3.07,  0.68,  7.80
2014,09,13,00, 1329, 0.00,  2.01,  0.59,  7.00
2014,09,14,00, 1325, 0.00,  2.34,  0.58,  7.00
2014,09,15,00, 1319, 0.00,  2.41,  0.54,  7.00
2014,09,16,00, 1322, 1.70, 10.97,  1.07, 18.30
2014,09,17,00, 1314, 0.00,  3.51,  0.67,  9.60
2014,09,18,00, 1328, 0.00,  7.36,  0.74, 12.20
2014,09,19,00, 1327, 0.00,  4.71,  0.90, 12.20
2014,09,20,00, 1328, 0.00,  4.75,  0.74, 10.40
2014,09,21,00, 1329, 0.00,  9.48,  2.25, 25.20
2014,09,22,00, 1263, 0.00,  4.32,  0.79, 13.00
2014,09,23,00, 1378, 0.00,  3.68,  1.01, 13.90
2014,09,24,00, 1364, 0.00,  4.23,  0.98, 11.30
2014,09,25,00, 1377, 0.00,  2.01,  0.72, 10.40
2014,09,26,00, 1368, 0.00,  3.17,  0.75,  9.60
2014,09,27,00, 1372, 0.00,  3.74,  0.89, 10.40
2014,09,28,00, 1377, 0.00,  3.89,  1.09, 13.00
2014,09,29,00, 1373, 0.00, 10.05,  1.65, 24.30
2014,09,30,00,  759, 7.00, 11.44,  0.66, 17.40
2014,10,01,00, 1302, 4.30,  9.71,  0.81, 20.00
2014,10,02,00, 1378, 0.00,  1.95,  0.60,  7.00
2014,10,03,00, 1372, 0.00,  2.67,  0.60,  7.00
2014,10,04,00, 1376, 0.00,  0.92,  0.39,  7.00
2014,10,05,00, 1377, 0.00,  1.54,  0.67, 11.30
2014,10,06,00, 1378, 0.00,  5.39,  1.06, 13.00
2014,10,07,00, 1376, 0.00,  5.26,  1.06, 13.00
2014,10,08,00, 1373, 0.00,  3.50,  0.84, 10.40
2014,10,09,00, 1364, 0.00,  1.68,  0.47,  6.10
2014,10,10,00, 1376, 0.00,  3.83,  0.96, 13.90
2014,10,11,00, 1378, 0.00,  7.86,  1.08, 20.00
2014,10,12,00, 1378, 0.00,  6.37,  1.07, 17.40
2014,10,13,00, 1378, 1.70, 10.14,  0.86, 18.30
2014,10,14,00, 1378, 0.00,  6.42,  0.62, 11.30
2014,10,15,00, 1378, 0.00,  3.67,  0.98, 15.70
2014,10,16,00, 1378, 0.00,  4.67,  1.34, 18.30
2014,10,17,00, 1378, 0.00,  6.84,  1.26, 16.50
2014,10,18,00, 1375, 0.00,  0.98,  0.55,  7.80
2014,10,19,00, 1378, 0.00,  4.96,  1.15, 16.50
2014,10,20,00, 1378, 0.00,  0.47,  0.38,  6.10
2014,10,21,00, 1378, 0.00,  2.29,  1.01, 22.60
2014,10,22,00, 1378, 0.00,  4.78,  1.52, 19.10
2014,10,23,00, 1332, 0.00,  4.74,  1.59, 18.30
2014,10,24,00, 1363, 0.00,  8.74,  0.81, 18.30
2014,10,25,00, 1378, 1.70, 17.07,  1.64, 34.80
2014,10,26,00, 1378, 0.00,  9.39,  1.86, 27.00
2014,10,27,00, 1378, 0.00,  7.69,  0.85, 15.70
2014,10,28,00, 1377, 0.00,  5.23,  1.06, 13.00
2014,10,29,00, 1369, 0.00,  4.83,  0.97, 12.20
2014,10,30,00, 1378, 4.30, 11.07,  0.97, 22.60
2014,10,31,00, 1378, 0.00,  0.61,  0.40,  7.80
2014,11,01,00, 1378, 0.00,  3.05,  0.77, 10.40
2014,11,02,00, 1380, 0.00,  5.06,  1.10, 13.90
2014,11,03,00, 1378, 0.00,  4.73,  0.69,  8.70
2014,11,04,00, 1377, 0.00,  6.14,  1.38, 16.50
2014,11,05,00, 1378, 0.00,  7.50,  0.98, 13.90
2014,11,06,00, 1378, 0.00, 12.85,  2.69, 33.00
2014,11,07,00, 1367, 0.00,  2.60,  1.20, 15.70
2014,11,08,00, 1378, 0.00,  1.68,  0.65,  7.00
2014,11,09,00, 1378, 0.00,  7.51,  2.16, 23.50
2014,11,10,00, 1378, 0.00,  7.55,  1.29, 18.30
2014,11,11,00, 1378, 5.20, 17.61,  1.51, 28.70
2014,11,12,00, 1371, 8.70, 15.47,  0.95, 22.60
2014,11,13,00, 1378, 5.20, 11.64,  1.01, 20.90
2014,11,14,00, 1377, 0.00,  8.37,  1.41, 20.90
2014,11,15,00, 1378, 3.50, 11.45,  0.86, 20.00
2014,11,16,00, 1377, 6.10, 11.17,  0.79, 20.90
2014,11,17,00, 1378, 4.30,  9.19,  0.68, 15.70
2014,11,18,00, 1377, 0.00,  7.79,  0.71, 13.00
2014,11,19,00, 1377, 4.30,  8.78,  0.54, 13.90
2014,11,20,00, 1376, 0.00,  5.29,  0.98, 11.30
2014,11,21,00,  120, 0.00,  0.00,  0.00,  0.00
2014,11,22,00,  120, 0.00,  0.00,  0.00,  0.00
2014,11,23,00,  118, 0.00,  0.00,  0.00,  0.00
2014,11,24,00,  120, 0.00,  0.00,  0.00,  0.00
2014,11,25,00,  120, 0.00,  0.00,  0.00,  0.00
2014,11,26,00,  809, 0.00,  0.70,  0.48,  7.00
2014,11,27,00, 1340, 0.00,  8.35,  1.55, 20.90
2014,11,28,00, 1379, 3.50, 15.56,  1.65, 27.00
2014,11,29,00, 1379, 3.50, 11.27,  1.61, 28.70
2014,11,30,00, 1378, 8.70, 12.43,  0.60, 18.30
2014,12,01,00, 1379, 0.00,  6.38,  1.08, 13.00
2014,12,02,00, 1379, 7.80, 12.41,  0.81, 19.10
2014,12,03,00, 1379, 7.80, 12.54,  0.73, 18.30
2014,12,04,00, 1349,10.40, 13.79,  0.62, 20.00
2014,12,05,00, 1379, 7.80, 12.64,  0.61, 19.10
2014,12,06,00, 1379, 0.00,  1.58,  0.69, 10.40
2014,12,07,00, 1349, 0.00,  9.97,  0.86, 16.50
2014,12,08,00, 1346, 0.90,  7.90,  0.80, 17.40
2014,12,09,00, 1349, 0.00,  8.79,  1.18, 17.40
2014,12,10,00, 1379, 0.00,  5.74,  1.08, 15.70
2014,12,11,00, 1349, 0.00, 12.04,  1.70, 24.30
2014,12,12,00, 1349, 0.00,  6.66,  1.18, 19.10
2014,12,13,00, 1349, 0.00,  8.04,  0.98, 15.70
2014,12,14,00, 1349, 7.80, 16.02,  0.94, 22.60
2014,12,15,00, 1349, 5.20, 16.04,  1.00, 21.70
2014,12,16,00, 1328, 5.20, 12.80,  1.19, 20.00
2014,12,17,00, 1345, 1.70,  8.95,  0.87, 15.70
2014,12,18,00, 1349, 0.90,  6.99,  0.80, 13.90
2014,12,19,00, 1349, 0.00,  3.14,  0.75, 10.40
2014,12,20,00, 1348, 0.00,  7.96,  1.75, 22.60
2014,12,21,00, 1349, 4.30, 12.69,  1.13, 22.60
2014,12,22,00, 1349, 1.70,  9.74,  1.16, 20.90
2014,12,23,00, 1349, 0.90,  9.17,  1.00, 15.70
2014,12,24,00, 1349, 3.50, 13.36,  1.26, 21.70
2014,12,25,00, 1349, 0.00,  3.88,  0.76,  9.60
2014,12,26,00, 1349, 0.00,  8.56,  0.53, 11.30
2014,12,27,00, 1349, 0.00, 11.19,  1.86, 27.00
2014,12,28,00, 1169, 0.00,  6.98,  0.75, 11.30
2014,12,29,00,  779, 7.80, 18.00,  1.39, 27.00
2014,12,30,00, 1348, 1.70,  8.76,  1.12, 16.50
2014,12,31,00, 1348, 1.70,  6.30,  0.50, 10.40
